Volver al catálogo

COSMOS 2442

GLONASS

ActivoNavegaciónMEO
NORAD 33378·PAYLOAD·🇷🇺 Russia

Lanzado Sep 25, 2008 desde Baikonur Cosmodrome

Loading…

Próximos Pases (próximas 24 horas)

TLE

ActualizadoSource: Space-Track

Época: Sep 12, 2026, 16:42 UTC

1 33378U 08046A   26255.69632506 -.00000046  00000-0  00000-0 0  9990
2 33378  65.4079 311.8999 0017816 306.0837 211.0028  2.13109403139816

Sigue COSMOS 2442 en tiempo real con AllMySat

Download on the App Store